Regional Weather Roundup
Issued by NWS

Home | Current Version | Previous Version | Text Only | Print | Product List | Glossary On
Versions: 1 2 3 4 5 6 7 8 9 10 11 12 13 14 15 16 17 18 19 20 21 22 23 24 25 26 27 28 29 30 31 32 33 34 35 36 37 38 39 40 41 42 43 44 45 46 47 48 49 50
000
ASUS44 KOUN 271300
RWROK

WEATHER ROUNDUP FOR OKLAHOMA
NATIONAL WEATHER SERVICE NORMAN OK
700 AM CST THU NOV 27 2014

NOTE: "FAIR" INDICATES FEW OR NO CLOUDS BELOW 12,000 FEET WITH NO
      SIGNIFICANT WEATHER AND/OR OBSTRUCTIONS TO VISIBILITY.

OKZ001>007-009>012-014-015-017-271400-
NORTHWEST OKLAHOMA AND THE PANHANDLE

CITY           SKY/WX    TMP DP  RH WIND       PRES   REMARKS
GAGE           PTCLDY    19  15  84 SW6       30.47R WCI  11
$$

OKZ016-021>023-033>039-044-045-271400-
SOUTHWEST OKLAHOMA

CITY           SKY/WX    TMP DP  RH WIND       PRES   REMARKS
LAWTON/REGL    CLEAR     31  24  75 CALM      30.52R
LAWTON/FT SILL CLEAR     29  24  82 N6        30.50R WCI  22
FREDERICK      CLEAR     32  25  75 NE6       30.50R WCI  26
CLINTON        CLEAR     28  23  81 CALM      30.51R
HOBART         CLEAR     29  25  85 N3        30.51R
ALTUS AFB      CLEAR     30  25  82 CALM      30.52R
$$

OKZ018>020-024>031-271400-
CENTRAL OKLAHOMA

CITY           SKY/WX    TMP DP  RH WIND       PRES   REMARKS
OKLAHOMA CITY  PTCLDY    31  22  69 NE5       30.51R WCI  26
OKC/WILEY POST CLEAR     28  22  78 CALM      30.52R
OKC/TINKER AFB CLEAR     29  22  78 N1        30.50R
STILLWATER     CLEAR     25  21  85 CALM      30.52R
GUTHRIE        CLEAR     27  22  81 CALM      30.51R
$$

OKZ008-013-054>072-271400-
NORTHEAST OKLAHOMA

CITY           SKY/WX    TMP DP  RH WIND       PRES   REMARKS
TULSA          PTCLDY    26  21  81 NW3       30.55R
TULSA/JONES    CLEAR     26  21  81 CALM      30.56R
PONCA CITY     CLEAR     23  19  85 CALM      30.53R
BARTLESVILLE   CLEAR     22  18  85 CALM      30.57R
MUSKOGEE       CLEAR     26  21  81 NW6       30.55R WCI  19
$$

OKZ032-040>043-046>053-073>077-271400-
SOUTH CENTRAL/SOUTHEAST OKLAHOMA

CITY           SKY/WX    TMP DP  RH WIND       PRES   REMARKS
MCALESTER      CLEAR     30  24  78 CALM      30.54R
$$




USA.gov is the U.S. government's official web portal to all federal, state and local government web resources and services.